Cloud_Cover
0 0 0 0 0 0 0 0 0 0 0 0 0 0 0 0 0 0 0 0 5 52 50 82 51 99 100 100 100 100 100 100 100 31 31 81 100 100 100 100 75 11 5
0 0 0 0 0 0 0 0 0 0 0 0 0 0 0 0 0 0 0 0 0 0 20 54 74 94 100 100 100 100 100 100 100 100 91 92 99 100 98 71 35 47 100
0 0 0 0 0 0 0 0 0 0 0 0 0 0 0 1 11 14 0 0 0 0 6 1 40 70 100 100 100 100 100 100 100 100 100 95 100 100 72 100 100 62 18
0 0 0 0 0 0 0 0 0 0 0 0 0 0 0 0 0 0 0 0 0 0 0 46 33 96 82 100 95 89 87 100 100 100 100 100 100 81 100 86 92 94 90
5 0 0 0 0 0 0 0 0 0 0 0 0 0 0 0 0 0 0 0 0 0 0 33 61 44 99 98 100 61 98 100 100 100 100 100 99 100 95 100 100 100 100
38 0 0 0 0 0 0 0 0 0 0 0 0 0 0 0 0 5 5 3 1 6 5 4 68 83 100 100 100 80 66 86 100 100 100 100 100 100 100 100 95 100 100
20 0 0 0 0 0 0 0 0 0 0 0 0 0 0 0 0 1 5 5 5 7 12 1 3 60 93 100 100 100 100 100 100 100 100 100 100 100 100 100 100 100 100
14 60 3 0 1 0 0 0 0 0 0 0 0 0 0 0 0 0 0 91 95 20 5 0 1 0 3 42 99 100 100 100 100 100 100 100 100 100 100 100 100 100 100
100 56 57 0 0 0 0 0 2 0 0 0 0 0 2 0 0 0 0 0 38 100 100 60 98 52 9 46 53 78 100 100 100 100 100 100 100 100 100 100 100 100 100
100 100 39 39 0 0 0 0 0 0 0 0 0 0 0 1 0 0 0 5 5 11 96 96 100 100 71 28 76 94 97 100 100 100 100 100 100 100 100 100 100 100 100
100 100 100 100 100 1 0 0 0 0 1 25 35 28 33 20 1 4 5 5 5 5 5 87 85 100 100 78 68 33 81 100 100 100 100 100 100 100 100 100 100 100 100
100 100 100 100 100 99 99 91 13 1 0 30 56 64 49 47 38 32 4 5 5 10 11 43 97 58 62 33 73 98 78 100 100 100 100 100 100 100 100 100 100 100 100
100 100 100 100 100 100 100 100 100 68 17 0 0 0 0 0 0 5 1 11 38 83 56 99 41 51 27 47 89 71 94 98 78 100 100 100 100 100 100 100 100 100 100
100 100 100 100 100 100 100 100 100 100 96 97 92 73 24 2 6 37 25 22 59 43 76 13 56 100 53 15 48 91 100 91 93 100 100 100 100 100 100 100 100 100 100
100 100 100 100 100 100 100 100 100 100 100 100 100 100 100 100 99 85 71 62 100 100 91 89 97 100 75 100 100 100 100 100 100 100 100 100 100 100 100 100 100 100 100
100 100 100 100 100 100 100 100 100 100 100 100 100 100 100 100 100 100 100 100 100 100 100 100 100 100 90 100 100 100 100 100 100 100 100 100 100 100 100 100 100 100 100
100 100 100 100 100 100 100 100 100 100 100 100 100 100 100 100 100 100 100 100 100 100 100 100 100 100 100 100 94 100 100 100 100 100 100 100 100 100 100 100 100 100 100
100 100 100 100 100 100 100 100 100 100 100 100 100 100 100 100 100 100 100 100 100 100 100 100 100 100 100 100 100 100 100 100 100 100 100 100 100 100 100 100 100 100 100
100 100 100 100 100 100 100 100 100 100 100 100 100 100 100 100 100 100 100 100 100 100 100 100 100 100 100 100 100 100 100 100 100 100 100 100 100 100 100 100 100 100 100
100 100 100 100 100 100 100 100 100 100 100 100 100 100 100 100 100 100 100 100 100 100 100 100 100 100 100 100 100 100 100 100 100 100 100 100 100 100 100 100 100 100 100
100 100 100 100 100 100 100 100 100 100 100 100 100 100 100 100 100 100 100 100 100 100 100 100 100 100 100 100 100 100 100 100 100 100 100 100 100 100 100 100 100 100 100
100 100 100 100 100 100 100 100 100 100 100 100 100 100 100 100 100 100 100 100 100 100 100 100 100 100 100 100 100 100 100 100 100 100 100 100 100 100 100 100 100 100 100
100 100 70 100 100 100 100 100 100 97 100 100 100 100 100 100 100 100 100 100 100 100 100 100 100 100 100 100 100 100 100 100 100 100 100 100 100 100 100 100 100 100 100
100 94 100 97 30 100 100 100 100 100 100 100 100 100 94 100 100 100 100 100 100 100 100 100 100 100 100 100 100 100 100 100 100 100 100 100 100 100 100 100 100 100 100
49 91 100 100 89 94 100 36 64 54 60 83 100 100 100 100 86 86 100 100 100 100 100 100 100 100 100 100 100 100 100 100 100 100 100 100 100 100 100 92 99 100 100
9 10 26 72 84 90 100 100 87 71 9 47 80 76 48 36 86 71 8 11 11 52 65 100 100 100 100 99 100 65 90 100 100 82 99 100 91 66 25 97 100 100 100